Date String (YYYY-MM-DD hh:mm:ss) UTC,Instrument flags,absolute air pressure of the measurement (hPa),sample flow rate (lpm),inlet stack bypass flow (lpm),air temperature of the measurement (°C),ambient temperature measured by the external sensor (°C),aerosol sample conditioner tube jacket temperature (°C),OPC LED temperature (°C),internal box temperature (°C),relative humidity of the measurement (%),span deviation,mass concentration of particles derived from Lorenz-Mie calculation of OPC scattering (μg/m³),mass concentration of particles derived from Lorenz-Mie calculation of OPC scattering (μg/m³),mass concentration of particles derived from Lorenz-Mie calculation of OPC scattering (μg/m³)
DateTimeUTC,F1_M11,P_M11,Q1_M11,Q2_M11,T1_M11,T2_M11,T3_M11,T4_M11,T5_M11,U1_M11,ZSPAN_M11,X0_M11,X2_M11,X1_M11
2023-08-30 11:00:00,SystemResetWarning,0833.7,5.00,000.00,028.7,027.5,000.0,037.2,030.3,26.3,-000.9,0009.48,0005.11,0004.60
2023-08-30 11:01:00,SystemResetWarning,0833.6,5.00,000.00,028.7,027.6,000.0,037.3,030.3,26.0,-001.0,0009.45,0005.10,0004.59
2023-08-30 11:02:00,SystemResetWarning,0833.6,5.00,000.00,028.7,027.6,000.0,037.3,030.3,26.1,-000.9,0008.88,0005.11,0004.58
2023-08-30 11:03:00,SystemResetWarning,0833.6,5.00,000.00,028.7,027.6,000.0,037.3,030.4,26.0,-001.0,0009.00,0005.13,0004.57
2023-08-30 11:04:00,SystemResetWarning,0833.7,5.00,000.00,028.8,027.6,000.0,037.3,030.4,26.0,-001.0,0009.41,0005.09,0004.56
2023-08-30 11:05:00,SystemResetWarning,0833.6,4.99,000.00,028.8,027.6,000.0,037.3,030.4,26.0,-001.1,0009.31,0005.01,0004.53
2023-08-30 11:06:00,SystemResetWarning,0833.6,5.00,000.00,028.8,026.1,000.0,037.2,030.2,25.9,-000.9,0009.41,0004.97,0004.51
2023-08-30 11:07:00,SystemResetWarning,0833.5,5.01,000.00,028.7,024.4,000.0,037.1,029.9,25.9,-000.8,0009.22,0004.96,0004.48
2023-08-30 11:08:00,SystemResetWarning,0833.5,5.01,000.00,028.6,024.1,000.0,037.0,029.7,26.1,-000.6,0008.71,0004.88,0004.44
2023-08-30 11:09:00,SystemResetWarning,0833.4,5.00,000.00,028.4,024.4,000.0,037.0,029.5,26.5,-000.8,0008.62,0004.83,0004.40
2023-08-30 11:10:00,SystemResetWarning,0833.4,4.99,000.00,028.3,024.8,000.0,037.0,029.6,26.6,-000.9,0008.85,0004.78,0004.36
2023-08-30 11:11:00,SystemResetWarning,0833.4,5.00,000.00,028.3,025.2,000.0,037.0,029.6,26.6,-000.7,0008.75,0004.71,0004.32
2023-08-30 11:12:00,SystemResetWarning,0833.4,5.00,000.00,028.3,025.6,000.0,037.0,029.7,26.6,-000.3,0008.66,0004.65,0004.28
2023-08-30 11:13:00,SystemResetWarning,0833.4,5.00,000.00,028.3,025.9,000.0,037.0,029.8,26.6,0000.0,0008.54,0004.58,0004.24
2023-08-30 11:14:00,SystemResetWarning,0833.4,4.99,000.00,028.3,026.1,000.0,037.0,029.8,26.7,0000.0,0008.39,0004.50,0004.20
2023-08-30 11:15:00,SystemResetWarning,0833.4,5.00,000.00,028.3,026.3,000.0,037.0,029.8,26.6,0000.0,0007.73,0004.46,0004.15
2023-08-30 11:16:00,SystemResetWarning,0833.4,5.00,000.00,028.3,026.5,000.0,037.0,029.8,26.6,0000.0,0007.68,0004.44,0004.12
2023-08-30 11:17:00,SystemResetWarning,0833.4,5.00,000.00,028.3,026.7,000.0,037.0,029.9,26.7,0000.0,0007.41,0004.42,0004.11
2023-08-30 11:18:00,SystemResetWarning,0833.5,5.00,000.00,028.3,026.8,000.0,037.0,029.9,26.7,0000.0,0007.40,0004.40,0004.11
2023-08-30 11:19:00,SystemResetWarning,0833.4,5.01,000.00,028.3,026.9,000.0,037.0,029.9,26.6,0000.0,0007.49,0004.45,0004.11
2023-08-30 11:20:00,SystemResetWarning,0833.4,5.00,000.00,028.4,026.9,000.0,037.0,029.9,26.6,0000.0,0007.44,0004.43,0004.11
2023-08-30 11:21:00,SystemResetWarning,0833.4,5.00,000.00,028.4,027.0,000.0,037.0,029.9,26.5,0000.0,0007.09,0004.44,0004.11
2023-08-30 11:22:00,SystemResetWarning,0833.4,5.01,000.00,028.4,027.0,000.0,037.0,030.0,26.4,0000.0,0006.96,0004.44,0004.12
2023-08-30 11:23:00,SystemResetWarning,0833.4,5.00,000.00,028.4,027.1,000.0,037.0,030.0,26.3,0000.0,0007.04,0004.47,0004.13
2023-08-30 11:24:00,SystemResetWarning,0833.4,5.01,000.00,028.4,027.1,000.0,037.0,030.0,26.1,0000.0,0007.54,0004.48,0004.15
2023-08-30 11:25:00,SystemResetWarning,0833.4,5.00,000.00,028.4,027.2,000.0,037.0,030.0,26.0,0000.0,0007.46,0004.48,0004.18
2023-08-30 11:26:00,SystemResetWarning,0833.4,4.99,000.00,028.5,027.2,000.0,037.0,030.0,26.0,0000.0,0007.54,0004.51,0004.21
2023-08-30 11:27:00,SystemResetWarning,0833.4,4.99,000.00,028.5,027.2,000.0,037.0,030.1,26.1,0000.0,0007.58,0004.53,0004.24
2023-08-30 11:28:00,SystemResetWarning,0833.4,5.00,000.00,028.5,027.3,000.0,037.1,030.1,26.2,0000.0,0007.69,0004.57,0004.26
2023-08-30 11:29:00,SystemResetWarning,0833.4,5.01,000.00,028.5,027.3,000.0,037.1,030.1,26.3,0000.0,0007.96,0004.59,0004.28
2023-08-30 11:30:00,SystemResetWarning,0833.4,5.01,000.00,028.5,027.3,000.0,037.1,030.2,26.3,0000.0,0008.24,0004.59,0004.30
2023-08-30 11:31:00,SystemResetWarning,0833.4,5.00,000.00,028.6,027.4,000.0,037.1,030.2,26.1,0000.0,0008.29,0004.62,0004.33
2023-08-30 11:32:00,SystemResetWarning,0833.4,5.00,000.00,028.6,027.4,000.0,037.1,030.2,26.1,0000.0,0008.26,0004.63,0004.36
2023-08-30 11:33:00,SystemResetWarning,0833.4,5.00,000.00,028.6,027.4,000.0,037.1,030.2,26.1,0000.0,0008.32,0004.67,0004.39
2023-08-30 11:34:00,SystemResetWarning,0833.4,4.99,000.00,028.6,027.4,000.0,037.1,030.2,26.0,0000.0,0008.39,0004.72,0004.41
2023-08-30 11:35:00,SystemResetWarning,0833.4,4.99,000.00,028.6,027.5,000.0,037.2,030.2,25.9,0000.0,0008.04,0004.74,0004.44
2023-08-30 11:36:00,SystemResetWarning,0833.3,5.01,000.00,028.7,027.5,000.0,037.2,030.3,25.8,0000.0,0008.12,0004.78,0004.45
2023-08-30 11:37:00,SystemResetWarning,0833.3,5.01,000.00,028.7,027.5,000.0,037.2,030.3,25.8,0000.0,0008.05,0004.78,0004.47
2023-08-30 11:38:00,SystemResetWarning,0833.3,5.01,000.00,028.7,027.5,000.0,037.2,030.3,25.7,0000.0,0008.01,0004.79,0004.48
2023-08-30 11:39:00,SystemResetWarning,0833.2,5.01,000.00,028.7,027.6,000.0,037.2,030.3,25.7,0000.0,0008.00,0004.80,0004.49
2023-08-30 11:40:00,SystemResetWarning,0833.2,5.00,000.00,028.7,027.6,000.0,037.3,030.3,25.7,0000.0,0007.77,0004.80,0004.50
2023-08-30 11:41:00,SystemResetWarning,0833.2,4.99,000.00,028.7,027.6,000.0,037.3,030.3,25.6,0000.0,0007.75,0004.83,0004.52
2023-08-30 11:42:00,SystemResetWarning,0833.2,5.00,000.00,028.7,027.6,000.0,037.3,030.3,25.3,0000.0,0008.01,0004.88,0004.53
2023-08-30 11:43:00,SystemResetWarning,0833.2,4.99,000.00,028.8,027.6,000.0,037.3,030.4,25.0,0000.0,0008.19,0004.95,0004.56
2023-08-30 11:44:00,SystemResetWarning,0833.2,5.00,000.00,028.8,027.6,000.0,037.3,030.4,24.8,0000.0,0008.22,0004.97,0004.57
2023-08-30 11:45:00,SystemResetWarning,0833.3,5.00,000.00,028.8,027.6,000.0,037.3,030.4,24.7,0000.0,0008.25,0004.95,0004.58
2023-08-30 11:46:00,SystemResetWarning,0833.2,5.01,000.00,028.8,027.6,000.0,037.3,030.4,24.8,0000.0,0008.36,0004.99,0004.59
2023-08-30 11:47:00,SystemResetWarning,0833.2,5.00,000.00,028.8,027.6,000.0,037.4,030.4,24.8,0001.7,0008.48,0005.01,0004.60
2023-08-30 11:48:00,SystemResetWarning,0833.2,5.00,000.00,028.8,027.3,000.0,037.3,030.4,24.5,0002.1,0008.52,0005.03,0004.62
2023-08-30 11:49:00,SystemResetWarning,0833.2,4.99,000.00,028.8,025.4,000.0,037.2,030.1,24.7,0001.7,0008.69,0005.12,0004.64
2023-08-30 11:50:00,SystemResetWarning,0833.2,5.02,000.00,028.7,024.2,000.0,037.1,029.8,24.9,0001.3,0008.80,0005.18,0004.66
2023-08-30 11:51:00,SystemResetWarning,0833.2,5.00,000.00,028.5,024.2,000.0,037.1,029.6,25.3,0000.9,0008.91,0005.21,0004.67
2023-08-30 11:52:00,SystemResetWarning,0833.2,4.99,000.00,028.4,024.5,000.0,037.1,029.5,25.4,0000.7,0009.06,0005.22,0004.67
2023-08-30 11:53:00,SystemResetWarning,0833.2,5.00,000.00,028.4,025.0,000.0,037.1,029.6,25.5,0000.8,0009.19,0005.19,0004.69
2023-08-30 11:54:00,SystemResetWarning,0833.2,5.01,000.00,028.3,025.4,000.0,037.1,029.7,25.8,0001.3,0009.04,0005.17,0004.70
2023-08-30 11:55:00,SystemResetWarning,0833.1,5.00,000.00,028.3,025.7,000.0,037.1,029.7,26.0,0000.0,0009.00,0005.16,0004.71
2023-08-30 11:56:00,SystemResetWarning,0833.2,5.00,000.00,028.3,026.0,000.0,037.0,029.8,26.0,0000.5,0009.01,0005.17,0004.71
2023-08-30 11:57:00,SystemResetWarning,0833.2,5.00,000.00,028.3,026.3,000.0,037.0,029.8,26.2,0000.6,0008.91,0005.17,0004.72
2023-08-30 11:58:00,SystemResetWarning,0833.2,5.00,000.00,028.3,026.5,000.0,037.0,029.9,26.1,0000.0,0008.79,0005.16,0004.73
2023-08-30 11:59:00,SystemResetWarning,0833.2,5.01,000.00,028.4,026.6,000.0,037.0,029.9,26.1,0000.0,0008.75,0005.16,0004.73
